Flag for U.S.A. Weather past 2 weeks in Alpena, Michigan, U.S.A.

Now
3 °F

Clear.


Feels Like: 3 °F
Forecast: 4 / 27 °F
Wind: No wind

Location: Alpena County Regional Airport

Current Time: Jan 27, 2015 at 9:21:47 PM

Latest Report: Jan 27, 2015 at 8:54 PM


Visibility: 10 mi

Pressure: 30.29 "Hg

Humidity: 79%

Dew point: -2 °F

Location of AlpenaLocation

Historic Weather in Alpena — Graph

°F

Alpena temperature yesterday

Maximum temperature yesterday: 20 °F (at 1:54 PM)
Minimum temperature yesterday: -5 °F (at 2:54 AM)
Average temperature yesterday: 8 °F

Past Weeks' High & Low Weather Summary

 TemperatureHumidityPressure
High38 °F (Jan 17, 9:54 PM)97% (Jan 18, 5:54 AM)30.85 "Hg (Jan 18, 5:54 AM)
Low-14 °F (Jan 14, 4:54 AM)51% (Jan 22, 3:54 PM)29.46 "Hg (Jan 18, 12:54 AM)
Average17 °F77%30.07 "Hg
* Reported Jan 12 7:54 PM — Jan 27 7:54 PM, Alpena, Weather by CustomWeather, © 2014

Note: Actual official high and low records may vary slightly from our data, if they occured in-between our weather recording intervals... More about our weather records

Advertising

Alpena weather history for previous 24 hours

 ConditionsComfort  
Time TempWeatherWind HumidityBarometerVisibility
7:54 PM
Jan 27
6 °FClear.No wind76%30.30 "Hg10 mi
6:54 PM9 °FClear.3 mph73%30.30 "Hg10 mi
5:54 PM14 °FClear.7 mph61%30.29 "Hg10 mi
4:54 PM18 °FSunny.9 mph57%30.26 "Hg10 mi
3:54 PM20 °FSunny.8 mph55%30.25 "Hg10 mi
2:54 PM20 °FSunny.8 mph55%30.23 "Hg10 mi
1:54 PM20 °FSunny.8 mph60%30.23 "Hg10 mi
12:54 PM19 °FSunny.8 mph57%30.24 "Hg10 mi
11:54 AM18 °FSunny.7 mph62%30.25 "Hg10 mi
10:54 AM17 °FSunny.12 mph62%30.24 "Hg10 mi
9:54 AM15 °FSunny.12 mph67%30.23 "Hg10 mi
8:54 AM8 °FSunny.8 mph79%30.23 "Hg10 mi
7:54 AM8 °FPassing clouds.7 mph83%30.20 "Hg10 mi
6:54 AM10 °FClear.7 mph88%30.18 "Hg10 mi
5:54 AM14 °FClear.8 mph80%30.14 "Hg10 mi
4:54 AM17 °FPartly cloudy.8 mph80%30.12 "Hg10 mi
3:54 AM17 °FLight snow. Ice fog.8 mph88%30.11 "Hg4 mi
2:54 AM15 °FOvercast.8 mph87%30.11 "Hg10 mi
1:54 AM15 °FOvercast.5 mph80%30.09 "Hg10 mi
12:54 AM16 °FOvercast.5 mph77%30.09 "Hg10 mi
11:54 PM
Jan 26
18 °FOvercast.5 mph71%30.09 "Hg10 mi
10:54 PM19 °FOvercast.8 mph74%30.08 "Hg10 mi
9:54 PM19 °FOvercast.7 mph71%30.08 "Hg10 mi
Weather by CustomWeather, © 2014

See weather overviewHow to use our weather pages